Location: Unspecified
(48.2082°N, 0.0000°E)
Time: 00:24:28
(UTC+00:00)

Transit 4A - Pass Details

Date: 20 June 2019
Orbit: 862 x 982 km, 66.8° (Epoch: 20 July)

Event Time Altitude Azimuth Distance (km) Brightness Sun altitude
Rises 08:40:55 0° 206° (SSW) 3,607 10.9 43.5°
Reaches altitude 10° 08:43:25 10° 205° (SSW) 2,681 10.3 43.9°
Maximum altitude 08:49:42 76° 121° (ESE) 1,006 9.4 44.9°
Drops below altitude 10° 08:56:07 10° 37° (NE) 2,743 10.7 45.9°
Sets 08:58:43 0° 36° (NE) 3,697 11.2 46.3°
